EHI
15 15 14 17 21 22 20 17 15 14 13 13 12 10 6 5 6 5 5 6 5 4 3 4 6 6 3 1 0 0 0 0 0 0 0 0 0 0 0 0 0 0 0
16 18 20 25 28 27 23 20 18 17 16 14 12 9 6 5 6 6 5 6 6 4 4 5 7 6 4 2 1 1 1 1 1 0 0 0 0 0 0 0 0 0 0
17 21 30 37 38 34 27 24 23 23 21 18 15 11 8 6 7 6 5 5 6 7 7 8 7 5 5 5 4 3 3 2 2 1 0 0 0 0 0 0 0 0 0
19 25 36 44 44 37 29 27 27 27 25 24 22 18 12 8 7 6 4 4 7 10 11 10 7 4 4 5 6 5 4 3 3 2 1 0 0 0 0 0 0 0 0
23 28 37 45 45 37 29 28 29 28 28 29 29 26 18 11 9 7 4 4 7 10 12 10 7 5 4 5 6 6 4 3 2 2 1 0 0 0 0 0 0 0 0
28 32 38 43 44 38 32 30 31 30 31 31 31 29 22 15 11 9 6 5 6 8 10 10 8 6 6 6 6 6 4 2 1 1 0 0 0 0 0 0 0 0 0
33 37 41 43 45 45 41 37 34 32 32 31 30 28 23 17 14 12 9 7 7 7 8 9 9 8 7 6 6 5 4 1 0 0 0 0 0 0 0 0 0 0 0
36 40 43 44 48 52 51 45 40 36 33 31 29 27 22 17 15 14 13 11 9 7 8 9 10 10 8 6 5 4 3 2 1 0 0 0 0 0 0 0 0 0 0
39 40 43 46 49 54 56 52 47 42 37 32 28 25 21 18 17 16 15 13 10 8 8 10 11 11 9 6 3 1 1 2 1 0 0 0 0 0 0 0 1 1 1
39 41 45 49 50 54 57 56 52 47 40 33 29 24 21 20 19 19 17 14 11 10 10 11 12 11 10 6 2 0 0 1 1 0 0 0 0 0 0 0 1 2 3
36 39 45 49 52 55 57 56 53 48 41 36 32 27 24 22 21 21 20 16 13 12 12 12 12 11 9 5 1 0 0 0 0 0 0 0 0 0 1 1 2 3 3
33 35 41 47 50 52 54 53 50 46 42 39 37 33 29 25 23 21 21 18 15 13 12 11 10 9 7 4 1 0 0 0 0 0 0 1 0 0 1 2 3 3 3
35 35 38 42 43 44 46 47 47 44 42 41 40 39 34 29 25 22 19 17 15 12 11 10 9 7 6 3 1 1 0 0 0 0 1 1 1 1 2 3 3 3 3
38 38 37 36 35 35 36 39 41 41 41 41 41 40 36 31 27 21 17 15 14 12 11 10 9 7 5 4 3 1 0 0 0 0 1 2 3 3 3 4 4 3 3
36 35 33 32 31 30 31 32 35 38 39 39 39 37 35 31 27 23 19 17 15 14 13 12 9 7 6 4 3 1 0 0 0 0 1 2 3 4 5 6 5 4 4
31 29 28 29 29 29 29 30 32 35 37 37 35 33 32 31 28 25 23 20 17 16 15 13 11 8 6 3 1 0 1 1 1 1 1 1 2 3 5 6 5 4 4
30 27 25 26 27 26 27 29 30 32 34 34 32 31 32 32 29 26 25 22 18 17 16 14 13 10 6 3 1 0 1 2 2 2 1 1 2 3 4 5 4 3 2
29 27 25 24 24 23 24 26 26 28 30 30 30 31 32 32 28 25 25 23 20 17 16 14 13 10 7 3 1 0 1 2 3 3 2 1 3 5 4 3 4 3 3
26 24 22 21 22 21 22 23 23 24 25 26 27 30 31 30 28 25 24 23 21 18 16 14 11 9 6 4 3 1 0 1 2 2 2 1 3 4 3 2 4 4 4
20 19 16 16 18 19 20 20 20 19 20 21 24 27 28 28 27 24 22 22 21 19 17 14 11 8 7 6 4 2 1 0 1 2 1 1 2 2 1 1 4 4 4
15 13 12 13 15 16 17 18 18 17 17 18 20 22 22 22 21 19 19 21 21 18 17 15 11 8 7 6 4 3 2 1 2 3 2 1 1 1 1 1 3 4 3
13 11 10 11 12 13 14 15 15 15 16 16 17 17 16 15 14 14 15 17 17 16 16 15 12 8 7 6 4 3 2 2 3 4 3 3 2 1 0 1 2 2 1
11 9 8 9 9 11 12 12 11 12 14 15 16 15 13 11 10 10 11 11 11 12 13 13 11 8 7 6 5 3 2 2 3 4 4 3 2 2 1 1 1 0 0
7 7 6 6 7 8 9 9 9 10 11 13 14 15 14 11 9 8 9 9 9 8 9 10 10 9 8 7 6 4 3 3 2 3 3 3 2 2 2 2 1 0 0
5 5 5 5 4 4 5 6 7 8 9 11 13 13 12 10 8 7 7 8 8 7 6 7 7 7 7 6 5 4 3 3 3 3 3 3 3 3 3 3 2 1 0
4 5 5 4 2 2 3 4 6 7 8 10 11 11 11 9 7 6 7 8 8 6 4 5 6 5 5 4 4 2 2 2 3 3 3 3 3 3 3 3 3 2 1
Wind_Speed
11 12 13 13 12 10 9 9 8 7 5 3 3 3 3 2 2 3 4 4 4 4 4 3 3 3 3 3 3 3 3 2 2 2 1 1 0 1 2 2 2 3 4
10 12 12 13 12 12 10 9 9 8 6 5 4 3 3 2 3 2 3 4 4 4 4 4 3 3 2 2 3 3 2 2 2 3 2 1 2 1 2 2 2 3 3
15 14 14 13 13 12 12 11 9 8 7 6 3 2 2 1 1 1 2 4 5 4 4 4 4 3 3 3 3 3 4 3 2 2 4 3 3 1 2 2 2 2 2
14 14 14 14 14 13 12 10 10 9 8 7 6 5 4 4 4 3 3 3 4 4 4 4 4 3 3 3 3 4 3 3 3 2 2 3 4 3 1 2 1 2 3
15 15 15 15 14 13 12 10 9 9 8 7 8 6 5 4 2 2 3 3 2 3 4 4 3 3 3 3 3 3 3 3 4 3 2 2 1 2 2 2 2 1 2
13 13 12 12 11 12 11 10 10 9 8 8 7 7 6 5 4 3 3 3 2 2 3 3 3 3 3 3 3 3 4 3 3 3 3 3 3 3 3 3 2 2 2
12 12 12 13 12 13 13 11 11 9 8 8 7 7 7 7 7 5 5 4 3 2 4 4 3 3 4 3 3 3 3 3 3 4 3 3 3 3 3 3 2 2 2
13 14 14 14 13 14 13 12 12 10 9 9 8 6 6 5 4 5 4 4 4 4 4 4 3 4 4 4 3 3 3 3 3 4 4 3 3 3 4 4 3 2 1
11 12 12 12 12 12 12 12 12 9 9 9 7 6 6 6 5 5 4 3 3 3 3 3 3 3 3 3 3 2 3 3 3 3 3 3 3 3 3 3 4 4 3
7 7 8 10 11 11 10 10 10 10 8 8 8 7 6 6 5 4 4 3 3 3 3 3 3 3 3 2 2 2 2 2 2 2 2 3 3 2 3 3 3 4 4
7 6 7 7 8 9 9 9 9 8 7 7 6 6 6 6 5 5 5 4 4 4 4 4 3 3 3 3 2 2 2 2 2 2 3 3 3 2 2 3 3 3 3
6 6 6 7 7 8 9 9 8 8 8 7 6 6 6 6 5 5 5 5 4 4 4 3 3 3 3 3 3 3 3 3 3 3 3 3 3 3 3 3 3 3 3
4 5 6 6 7 8 8 8 8 8 7 7 6 5 6 6 6 6 5 5 4 4 4 3 3 3 3 3 3 3 3 4 4 4 4 4 3 3 3 3 3 3 3
5 4 4 5 5 6 6 7 6 6 6 5 6 6 6 6 6 5 5 5 5 4 4 3 3 3 3 3 3 3 3 3 4 4 4 4 4 5 4 4 4 3 3
5 4 3 3 4 5 5 5 6 5 6 5 5 5 5 5 5 4 4 4 4 5 4 3 3 2 2 2 2 2 3 3 3 3 3 4 5 5 5 4 3 3 3
5 4 3 3 4 5 5 5 5 5 5 6 5 4 4 4 4 4 4 4 4 3 3 3 3 3 3 3 3 2 2 2 3 3 3 3 4 5 6 6 6 6 5
5 4 4 4 4 4 5 4 5 5 5 5 4 3 3 3 3 3 3 4 4 3 3 4 4 4 4 4 3 3 3 3 3 3 3 3 3 3 3 3 4 5 7
3 3 4 4 3 3 3 3 3 4 5 4 4 4 3 4 3 3 4 4 4 4 4 4 4 4 4 4 4 4 3 3 3 3 3 3 3 3 3 3 3 3 4
4 4 4 4 4 4 4 4 4 4 4 3 3 3 4 4 3 3 4 3 3 3 3 4 4 4 4 4 4 3 2 2 3 2 2 3 4 5 4 3 3 3 3
4 4 4 5 5 3 4 5 4 4 3 2 2 2 3 3 4 4 4 3 3 4 3 4 4 4 4 4 4 4 2 2 2 2 2 3 4 4 4 4 4 4 4
4 4 5 4 3 3 4 4 4 2 1 1 1 1 1 2 2 2 3 3 3 3 3 3 3 3 4 4 5 4 3 3 3 3 3 3 4 5 5 5 4 6 4
4 4 5 3 2 3 4 3 2 1 1 1 1 0 0 1 1 1 1 2 3 2 2 2 2 2 3 4 5 5 5 5 4 4 3 3 5 5 5 5 5 5 3
3 3 4 3 2 2 3 3 1 1 2 1 1 0 1 1 1 2 2 1 2 3 2 2 2 2 2 3 4 4 4 4 3 3 4 4 4 4 4 5 6 4 3
3 3 4 4 2 1 2 1 1 1 2 1 1 1 1 1 1 0 1 2 2 2 2 2 2 2 2 2 2 2 2 3 3 2 2 3 3 3 4 3 3 3 3
3 3 3 3 2 1 1 0 1 1 1 1 1 1 1 1 0 1 1 2 3 3 3 3 3 3 4 5 5 3 3 3 3 2 1 1 1 1 2 2 2 2 3
3 3 3 3 1 1 1 0 0 1 2 1 1 1 1 0 1 0 1 2 2 3 4 5 4 4 5 5 4 4 4 4 3 3 2 2 3 3 3 3 3 3 4
Wind_Direction
183 173 171 168 165 165 163 166 166 169 160 154 152 149 166 175 170 179 176 169 170 170 163 165 166 164 163 165 156 142 142 161 140 105 56 357 310 217 219 203 192 196 196
179 178 175 173 171 172 170 169 171 172 170 173 170 164 157 167 176 185 179 176 175 176 176 171 175 174 167 163 161 154 153 176 155 141 125 359 342 315 232 211 201 203 192
186 182 179 179 174 176 175 174 175 174 175 168 149 132 105 93 122 173 188 192 182 182 181 176 175 178 172 179 186 177 169 185 206 173 156 165 211 277 308 244 219 206 197
188 183 180 180 180 181 178 174 174 175 176 167 161 160 165 177 192 185 184 186 184 181 181 177 176 179 179 186 200 189 179 172 202 228 210 184 166 166 256 306 263 225 212
185 184 182 182 180 179 177 176 173 176 176 173 173 172 179 186 174 159 164 178 183 180 176 171 169 174 182 196 201 189 184 183 190 199 195 191 185 172 173 240 275 284 245
185 183 180 175 175 177 175 175 175 181 179 177 177 178 179 176 163 166 174 183 183 187 190 182 178 182 189 199 202 196 190 199 200 202 192 178 181 191 183 206 230 248 259
184 180 174 175 177 177 177 178 177 182 182 178 180 182 178 173 176 179 183 180 182 193 207 200 194 196 203 206 200 196 202 203 204 209 209 204 206 186 174 181 209 231 261
183 184 182 178 178 178 177 175 178 181 180 180 183 181 176 175 181 185 182 185 192 201 202 200 202 204 204 210 202 205 214 209 214 224 217 213 218 198 186 181 175 200 269
183 183 178 177 176 176 177 175 174 176 179 181 177 177 178 178 181 182 179 184 197 203 197 197 200 205 206 208 194 207 222 217 219 225 222 224 227 211 208 193 180 176 204
165 169 174 178 176 173 170 170 171 174 174 176 182 184 185 184 181 174 180 185 196 203 185 191 195 199 200 198 192 210 226 216 229 222 223 236 238 226 212 202 197 185 184
159 161 165 163 163 161 162 165 168 169 172 174 177 181 182 180 177 179 187 187 191 193 190 191 189 190 197 199 197 219 227 227 240 242 233 241 237 230 223 206 197 196 181
155 157 151 149 157 161 161 164 169 172 176 175 174 180 181 176 179 191 192 184 188 193 192 186 189 200 204 201 199 219 228 229 242 247 244 247 242 237 223 204 206 207 196
129 135 141 153 164 164 164 165 171 174 171 168 171 174 180 182 186 193 192 187 189 192 191 188 195 205 205 205 210 213 222 226 233 237 235 242 233 239 232 216 212 211 207
108 106 130 154 164 166 165 160 162 170 167 167 170 175 184 186 186 188 187 190 191 190 193 197 203 204 203 208 215 217 225 238 241 239 233 233 225 227 226 224 217 206 199
110 123 141 144 143 146 153 158 157 165 165 166 176 187 188 184 180 181 186 189 190 196 197 194 207 211 207 219 220 224 232 243 256 254 244 240 231 224 217 215 205 192 193
124 142 150 141 139 144 150 153 159 166 163 170 182 185 176 174 179 183 183 185 192 195 190 196 199 210 227 231 219 215 228 234 242 256 259 259 247 236 222 219 212 197 196
142 153 147 149 148 149 150 157 169 162 161 174 175 176 176 178 188 186 182 194 201 197 200 207 201 214 229 224 223 224 218 228 239 248 255 264 264 231 220 227 228 227 222
134 134 124 118 117 117 119 123 120 139 152 165 170 176 180 188 191 194 201 205 204 203 207 213 208 214 231 227 226 226 221 229 238 239 237 235 244 232 215 213 225 240 241
141 130 118 109 101 103 110 107 101 105 122 141 155 168 167 178 182 193 214 216 209 212 219 218 212 212 237 239 228 208 217 240 252 248 247 242 238 242 214 198 218 242 260
106 112 110 100 95 93 101 106 108 104 113 134 158 159 167 181 190 199 218 217 207 214 219 227 216 209 223 233 217 196 193 227 251 264 259 252 245 237 205 197 205 232 248
99 98 100 95 102 107 100 107 111 126 170 149 139 149 168 184 188 202 211 206 203 202 213 215 221 220 222 231 223 201 196 215 231 239 246 249 248 237 223 214 214 226 226
98 101 101 97 102 108 107 111 141 185 162 138 125 83 264 233 166 186 225 212 190 192 208 214 237 241 233 230 228 218 221 220 220 234 234 232 232 232 231 229 232 229 215
103 100 111 100 76 96 124 131 185 161 134 114 87 23 299 266 203 193 203 219 207 197 209 214 234 254 253 249 242 225 227 229 221 233 236 237 235 229 230 230 229 222 206
119 113 112 107 81 64 106 140 177 151 137 141 156 212 235 313 325 273 214 212 217 211 214 230 238 245 250 252 246 235 224 224 219 225 241 246 238 227 229 233 231 222 210
131 126 128 126 122 74 69 86 176 132 135 157 186 218 208 198 223 325 273 243 225 206 202 232 227 228 242 242 227 220 223 217 210 194 195 206 216 224 233 236 237 228 219
130 123 121 122 126 99 57 331 67 144 155 172 211 234 239 219 140 136 328 331 275 247 229 226 224 237 238 240 234 237 240 235 191 151 191 217 219 225 229 229 233 229 229